Theta_e
312 312 312 311 311 311 311 311 311 310 309 307 304 300 297 297 297 297 297 298 298 297 298 298 297 295 295 295 295 295 295 295 295 296 298 299 299 299 300 301 302 303 303 302 302 303 303 303 303 302 301 300 299 297 296 296 296 296 297 297 297 297 298 299 299 299 299 298 299 299 299 299 299 299 299 300 300 301 302 302 299 301 307 313 316
312 311 311 311 310 310 310 309 308 307 305 302 300 297 296 296 297 297 297 297 298 298 299 300 298 295 294 295 295 295 295 295 295 296 298 301 303 302 302 303 304 304 303 303 303 303 302 302 302 301 299 298 298 297 296 296 296 296 296 297 297 297 298 298 299 299 299 298 298 298 299 299 300 299 299 300 301 302 304 304 303 303 306 308 311
311 311 311 310 310 309 307 306 304 302 301 299 298 297 296 297 297 296 296 297 298 298 300 300 298 295 294 294 294 294 295 294 295 295 296 300 304 303 303 304 304 304 304 303 302 302 302 301 301 300 298 297 297 296 296 296 296 296 296 296 296 297 297 297 298 298 298 298 298 298 299 298 299 300 300 300 301 302 303 304 303 301 301 303 309
311 311 310 309 309 307 304 302 301 300 299 298 297 297 297 298 297 296 296 296 297 299 300 298 296 295 294 294 294 294 294 294 294 295 294 299 303 303 303 304 303 302 303 303 302 302 301 300 300 299 297 297 296 296 296 296 295 295 295 296 296 296 297 297 297 297 297 297 298 298 298 298 299 299 300 300 301 301 301 302 302 302 302 306 311
311 310 307 306 305 303 301 300 299 298 298 297 297 297 296 296 297 297 296 295 297 301 301 298 295 294 294 294 294 294 294 294 294 295 294 298 302 303 303 304 303 302 303 302 301 301 300 300 300 298 297 297 296 296 296 295 295 295 295 295 296 296 296 296 296 297 297 297 297 298 298 298 299 299 299 300 300 300 300 301 302 303 304 304 306
309 306 303 301 300 299 298 297 297 296 296 296 296 295 296 297 298 297 296 295 296 298 299 296 294 294 294 294 294 294 294 294 294 294 294 296 301 303 303 303 303 302 302 301 301 300 299 299 299 298 297 297 296 296 296 295 294 294 295 295 295 295 295 296 296 296 297 297 297 298 298 298 298 299 299 299 299 299 300 300 302 302 302 302 300
305 302 300 299 298 297 297 296 296 296 295 296 295 295 296 297 297 297 298 297 296 296 296 294 293 293 293 293 294 294 294 294 294 294 295 296 299 302 302 302 302 301 301 301 300 300 299 299 298 298 297 297 296 296 295 294 294 295 295 295 295 295 295 296 296 296 297 297 297 297 297 298 298 298 298 299 299 299 300 300 300 301 301 302 302
303 301 300 299 298 297 296 296 295 295 295 295 295 295 295 296 295 296 297 298 299 300 298 297 295 293 293 293 293 293 293 294 294 294 295 296 298 301 302 302 302 301 300 300 300 299 299 298 298 298 297 297 296 295 294 294 294 295 295 295 295 295 296 296 296 296 296 296 297 297 297 297 298 298 298 298 299 299 299 299 300 300 300 301 302
305 302 300 298 297 296 295 295 295 295 295 295 295 295 294 294 294 294 296 298 302 303 301 299 296 293 293 293 293 293 293 294 294 293 295 296 297 299 301 301 301 300 300 300 299 299 298 298 298 298 297 296 295 294 293 294 295 295 295 296 295 296 296 296 296 296 296 296 296 297 297 297 297 298 298 298 298 298 298 298 299 299 300 300 300
304 301 299 297 296 295 295 295 295 295 295 294 295 295 294 294 294 294 295 297 301 302 301 298 295 292 293 293 292 293 293 293 294 293 294 296 297 299 300 301 301 300 299 300 299 298 298 297 297 297 296 296 295 293 293 294 294 295 295 295 295 296 296 296 296 296 296 296 296 296 297 297 297 297 297 297 297 297 297 297 297 298 298 298 299
302 300 298 296 296 295 296 296 296 295 294 294 294 294 294 295 294 294 295 296 298 301 301 298 293 291 293 292 292 293 293 293 294 293 294 296 297 299 300 300 300 300 299 299 299 298 298 297 297 297 296 295 295 293 293 293 294 294 295 295 295 295 295 295 295 296 296 296 296 296 296 296 296 296 296 296 296 296 296 296 296 296 297 297 298
301 299 298 298 298 298 298 298 296 295 295 295 294 294 294 294 294 294 294 295 297 300 301 301 296 292 292 292 292 292 293 293 293 293 294 295 297 299 300 300 300 300 299 298 299 298 298 297 297 296 296 295 295 294 293 293 294 294 294 295 295 295 294 295 295 295 295 295 295 295 295 295 295 295 295 295 295 295 295 295 295 295 296 296 297
301 300 300 301 301 300 300 299 298 298 297 296 294 295 295 294 294 294 294 294 295 297 300 302 300 294 291 292 292 292 292 293 292 293 294 294 296 298 300 300 300 300 298 298 298 298 298 297 297 296 296 295 295 294 293 294 294 293 294 294 295 295 294 294 294 295 295 294 295 295 295 295 295 295 295 295 295 295 295 295 295 295 295 296 296
302 301 302 302 302 301 302 301 300 300 298 297 296 295 294 293 294 294 294 293 294 295 297 300 301 298 292 291 292 292 292 292 292 293 293 294 296 297 299 300 300 299 298 298 298 298 298 297 296 296 296 295 295 294 293 294 294 294 294 294 295 295 294 294 294 294 295 295 295 295 295 295 295 295 295 295 295 295 295 295 295 295 295 295 296
302 302 302 302 302 302 302 301 300 300 299 298 297 295 294 296 297 296 296 295 294 294 294 296 300 300 296 292 291 292 292 291 292 292 292 294 295 296 297 298 299 299 299 298 298 298 297 297 296 296 296 295 295 294 293 294 294 294 294 294 294 294 294 294 294 294 295 295 295 295 295 295 295 295 295 295 295 295 295 295 295 294 295 296 296
303 302 302 302 302 301 301 300 300 300 299 298 296 296 297 299 298 296 296 295 294 293 292 293 295 297 298 295 292 291 292 291 291 291 292 292 293 294 295 296 297 299 299 298 297 298 297 296 296 296 296 296 295 293 293 294 294 294 294 294 294 294 294 294 294 294 295 295 295 295 295 295 295 295 295 295 295 295 295 294 295 295 295 296 297
302 302 301 301 301 301 300 300 300 300 299 297 296 297 298 298 297 296 296 296 296 294 293 292 292 293 295 295 293 292 292 292 291 291 291 292 292 293 293 293 295 298 299 298 297 297 297 297 296 296 296 295 294 293 294 294 294 294 294 294 294 294 294 294 294 295 295 295 295 295 295 295 295 295 295 295 295 295 295 295 295 295 295 296 297
302 302 301 301 301 300 300 299 300 300 299 297 297 299 299 298 299 299 299 299 299 298 296 294 293 292 292 292 292 292 291 292 292 291 291 291 291 291 292 292 293 295 298 298 297 297 297 297 296 296 296 295 294 294 294 294 294 294 294 294 294 294 294 294 294 294 295 295 295 295 295 295 295 295 295 295 295 295 295 295 295 295 295 296 297
302 302 301 301 301 300 300 299 300 300 299 297 298 299 299 299 299 299 300 300 300 300 299 298 296 294 294 293 292 292 292 291 291 291 291 291 291 291 291 291 291 293 295 297 297 297 297 297 297 296 295 294 294 294 294 294 294 294 294 294 294 294 294 294 294 294 295 295 294 294 295 295 295 295 295 295 295 295 295 295 295 295 295 296 296
302 301 301 301 300 300 300 300 300 299 297 297 297 298 298 299 300 300 300 300 299 299 299 299 299 298 298 297 296 295 293 291 291 291 291 291 291 291 291 291 291 291 292 295 297 297 296 296 296 296 295 294 294 294 294 294 294 294 294 294 294 294 294 294 294 294 294 294 294 294 294 295 295 295 295 295 295 295 294 295 294 295 295 295 296
302 301 301 301 301 300 300 300 300 298 297 297 298 298 299 300 301 300 300 299 300 300 300 300 300 300 300 300 299 297 295 292 291 291 291 291 291 291 291 291 291 291 291 294 296 296 296 295 295 295 294 294 294 294 294 294 294 294 294 294 294 294 294 294 294 294 294 294 294 294 294 294 295 295 295 295 295 295 294 294 295 295 295 295 296
302 301 301 301 301 301 300 300 299 297 296 297 298 299 300 300 300 299 298 298 299 301 301 301 301 300 300 300 299 299 297 294 292 291 291 291 291 291 291 291 291 291 291 293 295 295 295 295 295 294 294 294 294 294 294 294 294 294 294 294 294 294 294 294 294 294 294 294 294 294 294 294 294 295 295 295 295 295 294 294 295 295 296 296 297
302 302 302 301 301 300 299 299 297 296 296 297 298 298 300 301 300 300 300 300 301 301 301 300 300 300 300 300 299 299 298 296 293 291 291 291 290 291 291 291 291 291 292 293 294 295 294 295 295 295 295 294 295 294 294 294 294 294 294 294 294 294 294 294 294 294 293 293 293 294 294 294 294 295 295 295 295 294 294 294 295 295 296 298 300
302 302 301 301 301 299 298 297 296 296 296 297 297 299 300 301 301 301 302 302 301 301 300 300 300 300 300 300 300 299 298 297 295 292 291 291 291 291 291 290 291 291 293 293 294 294 295 295 295 295 295 295 295 294 294 294 294 294 294 294 294 294 294 293 293 293 293 293 293 294 294 294 294 295 295 295 295 294 294 294 294 295 296 298 300
302 301 301 301 299 297 296 296 296 295 296 298 299 300 301 301 301 301 301 301 301 300 300 300 300 300 300 300 300 299 299 298 296 292 291 291 291 291 291 291 291 292 293 294 294 294 295 295 295 295 295 295 295 294 294 294 294 294 294 294 294 294 293 293 293 293 293 293 293 294 294 294 294 295 296 295 295 294 294 294 294 296 297 299 301
301 302 301 300 298 296 296 296 295 295 297 299 299 300 301 302 301 301 301 300 300 300 300 299 300 300 299 299 300 299 299 298 296 292 291 291 291 291 291 292 292 293 294 294 294 295 295 295 295 295 295 295 295 294 294 294 294 294 294 293 294 294 294 293 293 292 293 293 293 294 294 294 295 295 296 296 295 294 293 293 294 295 297 299 301
301 301 301 299 297 297 296 295 295 297 299 301 301 301 302 302 301 302 301 301 300 300 300 300 299 300 300 299 298 299 299 297 295 292 291 292 291 291 291 292 292 293 294 294 294 295 295 295 295 295 295 295 295 294 294 294 294 294 294 293 293 294 293 293 292 292 293 293 293 293 294 294 295 296 296 295 294 294 293 293 293 294 295 298 300
301 301 300 299 298 298 296 295 296 298 301 302 301 301 301 301 301 302 302 301 301 301 300 300 299 300 300 299 297 298 298 296 293 292 292 292 291 291 292 292 293 293 294 294 295 295 295 295 295 295 295 295 295 294 294 294 294 294 294 294 293 294 293 293 292 292 293 293 293 293 294 294 295 296 296 295 294 294 293 293 293 293 294 296 298
301 301 299 299 299 299 297 296 296 299 302 302 301 301 301 301 302 302 302 302 302 301 301 299 297 298 300 299 296 295 295 294 292 292 292 292 291 292 293 293 294 294 294 294 295 295 295 295 295 295 295 295 295 295 295 294 294 294 294 293 293 293 293 292 292 292 293 293 293 293 294 294 295 296 296 295 294 294 293 293 293 293 293 294 296
301 300 299 299 300 299 298 296 297 300 302 301 301 301 300 301 301 301 300 299 298 298 297 296 294 294 296 296 294 293 293 292 292 292 292 292 292 292 294 295 295 295 295 295 295 295 296 295 295 295 295 295 295 295 295 294 294 294 294 293 293 293 293 292 291 292 292 293 293 293 294 294 295 296 296 296 295 294 293 293 293 293 293 293 294
301 300 299 300 300 300 298 298 300 301 300 301 302 301 300 301 301 299 296 294 294 294 294 294 294 293 293 293 293 292 292 292 292 292 292 292 292 293 295 296 295 295 296 296 295 295 296 296 296 295 295 295 295 295 295 294 294 294 293 293 293 293 292 291 291 292 292 293 293 293 294 294 294 295 296 296 295 294 294 293 293 293 293 293 293
301 300 299 300 300 300 299 299 302 303 300 301 303 302 300 300 298 296 295 294 294 295 294 294 294 293 293 293 293 292 292 292 292 293 292 292 293 294 295 296 296 296 296 296 296 296 296 296 296 296 295 295 295 294 294 294 294 293 293 292 293 293 292 291 291 291 292 293 293 293 294 294 294 295 296 296 296 295 294 293 293 293 293 293 293
300 299 300 300 300 301 301 299 301 303 302 301 302 301 299 298 297 298 299 298 298 298 298 296 296 296 295 295 294 293 293 293 292 292 293 292 293 294 295 296 297 296 296 297 296 296 296 296 296 295 295 295 295 294 294 294 294 293 293 292 292 292 291 291 291 291 292 292 292 293 294 294 294 295 296 296 296 296 295 294 293 293 292 292 293
299 299 301 301 300 302 303 300 301 303 303 302 302 302 301 300 301 301 302 301 300 300 300 298 298 299 299 297 296 296 296 295 293 293 294 293 294 295 296 297 297 297 297 297 297 296 296 296 296 295 295 295 295 294 294 294 294 293 292 292 292 291 290 289 290 290 291 292 292 293 294 294 294 295 296 296 296 296 295 295 294 294 293 292 292
300 301 303 303 301 301 303 302 302 302 303 302 302 302 301 302 302 302 302 302 301 301 300 300 300 300 300 299 298 298 298 297 295 295 295 295 295 295 296 297 297 297 297 297 297 296 296 296 296 295 295 295 294 294 294 294 293 293 292 291 291 291 290 290 290 290 291 292 292 292 293 294 294 294 295 296 296 296 296 295 295 294 294 293 292
303 302 303 304 302 301 302 303 302 302 302 302 302 302 302 302 302 302 302 301 301 300 300 300 301 300 300 299 299 299 299 298 297 296 297 296 296 296 296 297 297 298 297 297 297 297 296 296 296 295 295 294 294 294 294 294 293 292 291 291 291 290 290 291 290 290 290 291 291 292 293 294 294 294 295 296 296 296 296 296 295 295 294 294 293
304 303 302 304 303 301 301 303 302 302 302 302 301 301 301 301 301 301 301 301 301 300 300 301 301 300 300 300 299 299 299 298 298 297 297 297 297 297 297 297 298 298 298 297 297 297 297 296 296 295 295 294 294 294 294 293 293 291 290 290 290 290 290 290 290 290 290 291 291 291 292 293 293 294 294 295 296 296 296 296 295 295 295 294 294
303 303 303 303 303 301 301 303 302 302 302 302 301 301 301 301 301 301 300 301 301 301 301 300 300 300 300 300 300 300 299 298 298 297 297 297 298 298 297 297 298 298 298 298 297 297 297 297 296 295 295 294 293 293 294 294 293 291 290 290 289 289 290 290 289 289 290 291 291 291 291 293 293 294 294 295 295 296 296 296 295 295 295 295 294
302 303 303 302 302 301 301 302 302 302 301 301 301 301 301 301 301 301 300 300 301 301 300 300 299 299 300 300 300 300 299 298 297 296 296 297 298 298 298 298 298 298 298 298 297 297 297 297 296 295 295 294 293 293 293 293 293 292 291 290 289 289 290 290 290 289 289 290 291 291 291 292 293 293 294 294 295 295 296 296 295 295 295 295 295
302 303 303 301 301 301 301 302 302 302 301 301 301 301 301 301 301 301 301 300 301 301 300 300 300 300 300 300 300 300 299 298 296 296 295 296 298 298 298 298 298 298 297 298 298 297 297 297 296 295 294 294 293 293 293 293 293 293 292 291 290 289 289 290 290 290 289 289 290 290 290 291 293 293 294 294 294 295 295 296 296 295 295 294 294
302 303 303 301 301 301 302 302 302 302 301 301 300 300 301 301 301 301 301 300 301 300 300 300 300 300 300 300 300 300 299 298 298 297 296 296 297 298 298 298 298 298 298 298 298 297 297 297 296 295 294 293 293 292 292 293 294 293 292 291 290 289 289 289 289 290 290 289 289 290 290 290 292 293 293 294 294 294 295 295 296 296 295 295 294
302 303 303 302 301 301 301 302 302 302 302 301 301 300 300 301 301 301 300 300 300 300 300 300 300 300 300 300 300 299 299 299 299 298 297 296 297 298 298 298 298 298 298 298 297 297 297 297 296 295 293 293 292 292 292 293 294 294 293 292 291 290 290 289 289 290 291 290 289 289 289 289 291 292 293 293 293 294 294 295 295 296 295 295 295
302 303 303 302 302 301 301 301 302 302 302 302 301 301 300 301 301 301 301 301 300 300 300 300 300 300 300 300 299 299 299 299 298 298 297 297 298 298 299 298 298 298 298 298 297 297 296 296 296 295 294 293 292 292 291 292 293 294 293 293 291 290 290 290 289 289 290 290 290 289 289 288 289 291 293 293 293 294 294 294 295 295 295 295 295
302 303 303 303 302 301 300 300 301 302 302 302 302 301 301 301 301 301 301 301 301 300 300 300 300 300 299 299 299 299 299 298 298 298 298 298 298 299 299 298 298 298 298 298 298 297 296 296 296 295 294 293 293 292 291 292 293 294 293 293 292 291 290 289 290 289 289 289 290 290 289 288 288 290 292 293 293 293 293 294 294 295 295 295 295
302 302 303 303 302 302 300 300 300 301 301 301 301 301 301 301 300 300 300 300 300 300 300 300 300 300 299 299 299 299 299 299 299 299 299 299 299 299 298 298 298 298 298 298 297 297 297 296 296 295 294 294 293 293 292 292 293 294 293 293 293 292 290 289 289 290 289 289 289 290 290 289 288 289 291 292 293 293 293 293 293 294 294 295 295
302 303 303 303 303 302 301 299 299 300 300 300 300 300 300 300 300 300 299 299 299 300 300 300 300 300 300 300 299 299 299 299 299 299 299 299 299 299 298 298 298 298 298 297 297 297 297 296 296 296 295 295 294 294 293 292 292 293 293 293 293 292 290 289 289 289 290 289 289 289 290 290 289 288 289 291 292 293 293 293 293 293 293 294 295
303 303 303 303 303 302 301 300 299 299 299 300 300 300 300 300 300 299 299 299 299 299 299 299 299 300 300 300 300 299 299 299 299 299 299 299 298 299 298 298 298 298 298 298 297 297 297 297 296 296 296 296 295 295 294 293 292 293 293 293 293 292 291 289 289 289 289 289 289 289 289 289 290 289 289 289 291 292 293 293 293 293 293 293 294
303 303 303 303 303 303 302 302 301 300 300 300 300 300 300 300 300 300 299 299 299 299 299 299 299 299 299 299 299 299 299 299 299 299 299 299 299 299 299 299 298 298 298 298 298 297 297 297 297 296 296 296 296 296 295 295 294 293 293 293 293 292 291 290 289 289 289 289 289 289 289 289 289 290 289 289 290 291 293 293 293 293 293 293 294
303 303 303 303 303 303 302 302 302 301 301 301 301 301 301 300 300 300 300 299 299 299 299 299 299 299 299 299 299 299 299 299 299 299 299 299 299 299 299 299 298 298 298 298 298 298 297 297 297 297 297 297 296 296 296 296 295 294 293 293 292 292 291 290 289 289 289 289 289 289 289 289 289 289 289 289 289 290 291 292 292 292 292 293 293
302 303 303 303 303 303 302 302 302 302 301 301 301 301 301 301 301 300 300 300 299 299 299 299 300 299 299 299 299 299 299 299 299 299 299 299 299 299 299 299 299 298 298 298 298 298 298 297 297 297 297 297 297 296 296 296 296 295 294 293 293 292 292 291 290 289 289 289 289 289 289 289 289 289 289 289 289 289 290 291 292 292 292 292 293
302 303 303 303 303 303 303 302 302 302 302 302 301 301 301 301 301 301 300 300 300 299 299 299 299 299 299 299 299 299 299 299 299 299 299 299 299 299 299 299 299 299 298 298 298 298 298 297 297 297 297 297 297 297 296 296 296 296 295 295 294 293 292 291 291 290 289 289 289 289 289 289 289 289 289 289 289 289 289 290 291 291 291 292 292
Wind_Speed
12 13 13 13 14 14 14 14 14 14 14 15 16 16 16 16 16 15 15 14 14 14 14 14 12 13 13 12 13 12 12 12 12 13 14 14 14 14 14 13 13 12 12 12 13 14 13 13 13 13 13 14 16 17 18 21 25 26 26 26 26 26 26 26 28 33 36 34 34 35 35 35 36 36 36 36 36 34 34 31 27 25 24 24 27
14 15 14 14 15 14 14 14 14 15 15 16 17 16 16 16 15 15 15 15 14 14 14 13 11 12 12 12 12 12 12 12 12 12 13 13 12 13 13 13 12 12 12 13 13 13 13 13 13 14 14 14 16 18 21 25 27 27 27 27 27 27 26 26 28 32 36 37 35 35 34 34 35 35 35 35 35 35 35 34 30 28 28 27 27
15 15 15 14 14 13 14 16 17 17 17 17 17 17 17 16 14 15 15 15 14 14 13 12 11 11 12 11 11 11 12 12 12 12 12 14 12 11 11 12 11 11 12 12 12 12 13 13 13 15 15 17 19 21 23 27 28 29 30 29 29 28 26 26 28 30 34 36 35 33 33 34 35 34 34 35 35 35 35 34 34 32 29 26 27
15 14 15 15 15 15 17 19 18 18 18 18 18 18 17 16 15 15 14 14 14 14 13 11 10 11 11 11 11 11 12 12 12 11 11 13 12 11 11 11 10 11 11 11 12 12 13 13 14 16 17 19 21 23 25 28 31 33 34 32 30 29 28 27 28 29 32 35 34 32 32 33 34 33 34 36 36 35 35 35 34 34 30 26 29
16 15 16 18 18 18 19 19 19 19 19 18 18 17 17 16 15 14 14 13 14 13 11 10 10 11 11 11 11 11 12 12 12 10 10 12 12 11 11 10 11 12 11 11 12 12 12 13 14 17 18 20 23 24 26 30 34 35 35 33 30 29 28 28 27 28 30 33 35 34 32 31 32 31 32 34 37 38 38 36 33 33 33 31 31
18 18 19 20 20 20 20 19 18 19 18 18 17 17 17 16 15 14 13 13 13 12 11 10 11 12 12 12 12 11 12 12 11 11 10 10 12 11 10 10 10 11 11 11 12 13 13 13 14 17 18 20 24 26 29 33 36 36 35 32 29 28 28 28 28 29 30 32 34 35 34 32 32 31 30 32 35 38 39 39 35 34 36 37 35
19 20 20 20 20 20 19 19 18 18 18 18 17 17 16 15 15 14 14 13 13 12 11 11 12 13 13 13 12 12 12 12 11 11 10 10 11 11 10 10 10 10 11 11 11 13 14 13 15 18 19 21 25 27 31 35 35 34 32 30 29 29 30 31 30 30 30 31 33 34 34 33 32 31 31 32 33 34 35 39 41 40 39 38 37
20 20 21 21 21 20 20 19 19 18 18 17 16 16 15 14 14 15 14 14 13 12 11 12 13 14 13 13 13 13 13 13 12 12 10 10 10 11 10 10 10 10 12 11 11 13 13 13 16 18 19 21 23 26 31 33 33 32 30 28 29 31 33 33 32 31 31 32 33 34 34 34 33 33 33 33 34 34 35 37 41 41 40 39 38
21 22 22 21 21 20 19 19 18 18 17 17 16 15 15 15 14 14 14 14 14 12 10 11 12 13 14 14 14 14 14 15 15 13 12 11 11 12 11 10 10 11 12 11 12 13 13 13 15 16 17 20 22 27 31 33 32 30 26 27 30 32 33 34 33 32 31 31 33 34 34 35 35 35 35 34 34 35 36 37 37 37 38 42 43
22 22 22 22 21 20 20 19 18 17 16 16 16 16 16 16 15 14 14 15 14 13 11 11 12 14 14 14 15 15 15 16 15 14 12 11 12 13 12 10 9 11 13 11 12 14 13 14 15 14 17 22 25 29 32 33 33 27 23 27 30 31 33 34 33 32 31 31 33 35 35 35 36 35 35 35 35 35 35 36 38 38 38 42 47
22 22 22 21 20 20 19 18 18 17 17 16 16 16 16 16 15 14 15 15 15 13 11 11 13 15 15 15 16 16 16 16 14 13 12 11 11 13 12 11 9 10 12 10 11 14 14 14 15 15 20 24 27 31 32 33 34 29 23 25 28 31 35 34 34 35 35 33 33 34 35 37 37 36 36 37 36 36 37 37 39 40 38 39 43
22 22 21 20 20 19 19 18 18 18 17 17 17 17 16 16 15 15 15 15 14 13 11 9 11 15 15 15 16 17 16 16 15 14 13 12 11 12 12 11 10 10 11 10 11 14 14 14 16 19 23 24 26 32 32 30 34 34 27 23 26 33 38 37 36 37 37 36 34 33 35 36 38 39 40 41 40 41 42 40 39 40 40 39 39
22 22 21 20 19 19 18 18 18 18 17 17 17 17 17 17 16 15 15 14 14 13 13 10 8 11 16 16 16 17 17 17 16 15 14 13 13 12 11 10 9 10 11 11 11 12 13 16 20 23 24 25 27 32 31 29 33 36 32 27 26 32 39 39 38 38 38 38 35 34 35 37 40 42 42 42 43 44 43 41 40 40 42 42 41
23 22 21 20 19 19 19 19 19 18 18 18 17 18 18 18 17 16 15 15 14 13 13 11 8 8 13 16 16 17 17 18 17 16 15 14 13 13 10 9 9 9 12 13 11 11 14 20 24 25 25 27 30 32 30 29 33 35 35 31 28 31 38 39 40 41 40 40 37 37 41 42 44 45 43 41 41 42 42 42 41 40 42 44 44
23 22 21 21 20 20 19 19 19 18 18 18 18 19 18 17 15 15 14 14 14 13 13 12 9 6 9 14 17 17 17 18 17 16 16 14 12 13 11 8 7 7 12 14 12 12 17 22 24 24 26 28 31 31 28 29 33 35 35 35 32 33 37 39 40 42 41 41 40 42 46 46 45 46 44 41 40 39 39 38 37 38 40 41 42
23 22 22 21 20 20 20 20 20 19 18 18 19 18 17 15 15 15 14 13 13 13 13 12 11 8 7 10 15 17 16 17 17 17 17 15 13 14 12 9 5 4 8 13 13 14 18 22 22 23 26 29 31 31 29 29 33 35 36 37 36 35 37 39 40 40 40 42 44 45 46 45 45 46 44 41 40 39 37 36 34 34 35 35 37
23 23 22 22 21 21 21 21 20 19 19 19 19 18 17 16 15 14 13 12 12 12 12 13 13 12 9 9 13 16 16 17 17 17 17 16 15 14 14 13 8 4 4 8 12 15 18 20 21 23 26 30 31 31 30 30 33 35 36 37 37 37 39 40 40 39 38 43 46 46 46 45 46 47 44 41 39 37 35 35 33 31 30 31 33
24 24 23 22 22 21 21 21 20 19 19 19 19 17 15 14 13 12 11 10 9 8 8 10 11 13 13 13 14 16 16 17 18 18 17 17 16 15 15 15 12 7 4 5 9 14 18 19 21 24 27 29 30 30 30 31 33 35 35 37 37 38 40 41 41 39 38 43 47 46 46 47 48 48 47 44 40 36 33 33 31 28 28 29 31
24 24 23 22 22 21 21 21 20 19 19 19 19 17 16 15 13 11 10 9 8 7 5 6 8 10 13 15 16 17 17 17 18 18 18 17 17 16 16 16 16 12 7 5 9 12 15 17 20 24 26 28 30 30 31 31 32 33 33 35 38 39 39 40 40 39 39 44 48 48 49 51 51 51 50 46 42 37 32 30 28 26 27 28 30
25 24 23 23 22 21 21 20 19 19 20 19 18 17 16 14 11 10 9 8 8 7 6 5 5 7 9 11 14 16 17 17 17 18 18 17 16 16 16 17 18 17 12 8 10 14 15 15 17 22 25 28 30 31 31 31 31 31 31 34 38 38 37 38 38 38 41 46 49 50 52 54 54 54 54 50 44 39 33 29 26 25 25 26 27
25 25 24 23 22 22 21 20 20 20 20 19 18 16 15 13 11 10 10 9 9 7 5 4 3 5 6 7 9 13 16 17 17 17 17 17 16 16 17 18 19 20 16 11 12 15 16 16 19 23 27 29 30 31 31 31 31 30 30 34 37 36 35 37 37 38 42 47 49 51 53 56 57 57 56 53 47 41 36 30 25 22 21 22 24
26 25 24 23 22 22 21 21 20 20 20 18 17 16 15 13 11 10 10 9 9 7 5 4 2 3 4 4 6 10 13 15 17 16 16 16 16 16 17 18 19 19 17 14 14 15 16 18 23 26 28 29 30 30 31 31 31 31 31 35 36 34 34 36 37 39 44 47 49 52 55 56 58 59 58 55 48 43 39 32 26 22 18 17 18
26 25 24 23 23 22 22 21 21 21 20 18 17 16 14 13 11 9 8 8 7 6 6 5 3 2 2 2 5 9 12 14 16 16 15 16 16 16 17 18 19 18 17 16 15 16 17 19 22 25 27 28 29 30 31 30 30 31 32 34 35 33 34 36 37 38 43 47 49 53 55 57 59 60 59 56 49 44 40 34 29 24 17 12 11
26 25 24 24 23 23 23 22 21 21 19 18 16 14 13 11 10 7 6 4 4 4 4 4 3 2 2 1 3 6 9 12 15 16 16 15 16 16 18 19 17 16 17 17 16 16 18 20 20 23 26 27 28 30 30 29 30 30 31 34 34 33 34 37 37 38 42 46 49 52 55 57 58 59 58 55 49 44 40 36 33 29 18 8 5
27 26 25 24 24 24 23 22 21 21 19 16 14 13 12 10 7 7 7 6 5 4 4 3 3 2 1 1 2 3 6 10 14 16 16 15 16 17 19 18 15 14 16 17 17 16 17 18 19 22 24 25 27 29 28 28 29 29 31 34 34 34 36 37 37 38 41 45 48 50 53 56 57 57 57 53 49 46 42 39 37 32 21 9 5
28 26 25 24 24 24 23 22 21 20 17 14 12 12 11 9 7 7 7 7 6 6 5 4 3 1 1 1 1 2 6 11 13 14 15 15 16 18 19 17 16 15 16 16 16 16 17 18 20 23 24 24 27 28 28 29 29 28 31 34 33 33 37 38 37 37 40 43 46 48 51 55 56 56 57 54 50 48 45 43 41 38 30 21 15
28 26 24 24 23 23 23 22 22 20 16 13 11 9 9 9 8 7 7 7 6 6 5 4 3 2 0 1 1 0 5 11 12 13 14 14 16 18 18 17 17 17 16 16 16 17 18 20 22 23 23 23 26 28 28 30 31 30 32 34 33 33 36 37 37 37 39 41 45 47 50 53 55 57 57 55 51 49 47 45 44 42 39 33 27
28 26 25 25 24 23 23 22 21 19 16 12 10 9 9 9 9 10 12 11 9 8 7 6 6 5 2 3 3 2 5 10 10 11 13 14 16 17 17 17 18 18 17 17 17 17 19 21 23 23 23 23 27 29 29 30 32 32 33 34 35 34 36 38 38 39 39 41 44 46 49 52 54 56 57 55 52 50 48 46 46 45 43 40 36
27 26 26 25 24 22 22 21 19 18 16 13 12 12 12 11 12 14 15 14 12 11 9 7 6 6 5 5 6 5 5 7 8 10 12 13 15 15 16 17 19 20 19 19 18 18 20 23 23 24 24 24 27 30 30 30 32 32 33 35 35 35 37 38 39 39 39 41 44 46 48 50 51 53 56 56 53 51 50 48 47 47 46 44 42
28 27 27 25 24 22 21 20 17 16 16 15 14 15 15 15 14 13 12 13 12 11 9 6 5 5 5 5 4 3 5 6 7 8 10 12 13 13 14 17 18 19 20 20 20 20 21 22 23 23 24 25 27 29 30 30 31 31 33 35 35 35 37 38 39 39 38 40 44 45 46 47 48 50 55 56 53 52 52 50 48 48 48 48 46
28 28 28 26 24 22 20 20 17 14 15 15 14 15 16 17 16 10 7 8 9 7 7 6 4 5 5 4 3 3 5 6 7 8 10 11 12 11 13 15 17 17 19 20 21 21 21 21 22 23 23 24 26 28 28 29 29 30 32 34 34 34 36 38 39 39 38 40 43 44 45 45 46 47 52 55 54 52 53 52 50 48 48 48 48
29 29 28 26 24 20 18 19 19 15 15 15 14 15 15 17 16 10 5 5 4 3 3 3 2 2 2 3 3 3 4 6 7 8 10 11 11 11 11 13 14 16 18 19 20 22 21 20 21 22 22 23 25 26 27 28 28 29 31 33 33 34 35 36 37 37 37 39 42 44 44 45 45 45 49 53 54 52 52 53 52 49 48 48 47
29 29 26 23 23 20 17 18 19 17 15 16 15 14 13 13 12 9 5 3 2 1 1 1 1 1 4 4 4 4 6 8 8 8 10 11 11 10 11 12 12 14 17 18 18 20 20 19 20 21 21 22 24 25 25 26 27 28 29 31 32 33 34 35 36 36 36 38 41 42 42 43 44 44 46 50 53 52 51 51 51 51 49 48 47
26 26 23 20 22 23 18 17 18 17 16 16 16 15 13 10 9 9 6 4 4 3 2 2 2 3 5 6 6 6 8 9 9 8 9 11 11 10 11 11 11 12 15 17 17 18 18 18 19 20 21 21 23 24 24 25 25 27 28 29 30 31 33 34 35 35 36 37 39 40 41 42 43 43 44 47 50 52 51 49 49 50 50 48 47
23 24 22 18 21 23 20 16 17 17 16 16 16 15 13 12 12 10 7 5 5 4 4 5 5 5 7 8 7 7 9 10 10 9 9 11 11 11 12 12 11 12 14 15 15 16 17 17 18 19 20 20 21 23 23 23 24 26 27 28 29 30 31 33 34 33 34 36 38 37 38 40 41 41 42 44 46 49 51 49 47 47 47 47 46
22 22 22 18 18 22 20 16 16 17 16 15 16 15 14 13 12 9 7 6 6 6 7 7 6 6 7 9 8 8 9 10 10 9 9 11 12 12 13 13 12 12 12 13 15 15 16 16 17 18 19 19 20 21 22 22 23 25 26 27 29 30 31 31 32 31 31 34 36 36 36 38 39 39 40 41 42 44 47 47 45 44 44 45 45
23 21 23 20 18 20 20 16 15 17 16 15 16 15 13 14 13 11 10 9 8 7 8 8 8 8 8 9 9 8 8 9 9 9 9 10 11 12 12 13 12 12 11 13 15 15 15 15 16 17 18 18 19 19 20 21 22 24 25 26 28 29 30 30 30 30 30 32 34 35 35 35 36 37 39 40 40 41 44 46 44 42 42 43 44
22 20 22 22 19 19 19 17 16 17 17 16 15 14 14 14 13 12 12 10 10 9 9 8 9 11 11 10 8 7 7 8 8 8 9 10 10 11 12 12 12 11 11 13 14 14 14 15 15 16 17 18 18 18 19 20 22 24 25 26 27 28 28 29 29 28 28 30 32 34 33 33 33 34 36 37 38 39 41 43 43 41 41 42 44
22 19 21 22 21 19 18 18 17 17 18 17 16 14 14 14 13 13 12 12 12 12 11 10 10 11 12 11 9 8 8 8 8 9 10 11 11 11 12 11 11 11 12 13 13 13 13 14 15 16 17 18 18 18 17 18 20 23 25 26 27 27 27 28 29 28 27 28 30 31 32 31 31 31 32 34 36 37 38 39 41 41 40 40 40
22 20 20 21 21 20 19 17 17 18 19 19 17 15 14 14 14 13 13 12 12 12 11 10 10 10 10 12 12 12 10 8 9 11 12 11 10 11 11 11 11 11 12 12 12 12 13 13 15 16 17 17 17 18 17 17 19 22 24 25 26 27 26 26 27 27 27 26 27 29 30 29 28 29 30 32 33 34 35 36 37 39 39 38 36
22 20 19 19 20 22 21 18 17 18 18 18 18 16 15 15 15 14 13 13 13 13 12 12 12 11 12 13 14 14 13 12 15 17 15 11 10 11 12 11 12 12 12 12 12 13 13 14 15 17 18 17 17 17 17 16 17 20 22 23 24 25 25 25 25 25 26 26 25 26 27 27 26 26 27 29 30 31 32 33 34 35 37 37 36
22 20 19 19 20 23 23 20 18 17 17 17 18 17 16 16 16 15 15 15 14 14 13 13 13 13 14 15 16 17 17 18 19 20 17 12 12 12 12 11 12 12 12 12 13 13 13 14 17 18 18 18 17 17 16 15 15 18 21 21 22 24 24 24 24 24 24 24 25 24 24 25 24 23 23 25 27 28 29 30 31 31 32 34 35
21 19 19 19 21 23 24 21 19 18 17 17 17 17 16 16 16 15 16 16 16 16 16 15 14 14 15 16 16 17 18 18 18 18 16 13 10 9 10 12 13 12 11 13 15 14 13 15 17 19 18 18 17 16 16 14 13 15 19 21 21 22 23 23 23 23 22 22 23 23 23 23 22 20 20 22 24 25 26 26 28 28 29 29 30
22 19 18 19 20 22 24 23 21 19 18 18 17 17 17 17 17 16 16 16 17 17 17 17 16 15 16 18 18 17 17 18 18 17 15 12 10 11 12 14 14 13 13 15 16 16 14 16 18 19 19 18 17 16 16 14 11 12 17 20 20 21 22 21 22 22 21 21 21 21 22 22 21 18 18 19 21 22 23 23 24 24 25 26 26
22 20 19 19 19 21 23 24 23 21 20 19 19 19 18 18 18 17 17 17 16 16 16 17 16 16 17 18 19 19 18 18 17 14 12 11 11 13 14 14 14 13 13 14 15 15 15 17 19 19 20 20 18 17 17 15 10 9 14 19 20 20 21 20 20 20 20 20 19 18 19 20 20 17 16 16 17 19 20 20 20 21 22 23 22
22 21 20 19 19 19 21 23 23 22 21 20 20 20 19 19 19 19 19 18 18 17 17 17 17 17 17 18 19 20 18 16 14 13 12 12 13 14 15 15 14 14 14 14 15 16 17 19 20 20 20 21 21 19 18 16 11 8 10 17 19 19 20 19 18 18 17 18 18 17 16 17 17 16 15 14 14 15 17 17 17 18 19 19 18
22 22 21 20 19 18 19 20 21 22 21 21 20 20 20 19 19 19 20 20 19 19 19 19 18 18 18 19 19 20 20 18 17 17 17 17 17 17 16 15 15 15 16 16 17 19 20 20 20 20 21 23 23 22 19 18 15 10 9 15 18 18 19 19 18 17 16 16 16 16 15 15 15 14 14 13 12 13 15 16 16 17 17 16 15
21 22 21 20 20 19 19 19 19 20 21 21 21 21 20 20 20 19 19 20 20 20 20 21 20 20 20 20 19 20 20 20 20 19 19 18 18 17 16 16 16 17 17 18 20 22 22 19 19 22 24 24 24 24 22 21 19 14 11 14 18 18 17 18 18 17 15 14 14 14 13 13 13 12 13 13 11 10 12 14 16 16 16 14 13
21 21 21 21 21 20 20 19 19 20 20 20 20 21 21 21 20 20 19 19 19 19 20 21 21 20 21 20 20 20 20 20 20 20 19 19 19 18 18 18 18 17 17 18 20 21 22 21 22 26 26 24 25 26 25 23 22 19 15 16 18 17 17 17 17 16 15 13 12 12 11 11 11 11 11 12 11 9 8 10 13 15 15 12 10
22 21 21 22 22 21 20 20 20 20 20 20 21 21 21 21 21 21 21 21 21 20 20 20 20 20 20 20 20 20 21 20 20 21 20 20 20 20 19 19 19 19 21 22 20 18 19 21 24 26 24 24 27 28 25 23 23 22 19 18 18 17 16 17 17 16 15 13 12 11 10 8 9 10 10 10 10 9 7 7 10 12 13 11 9
26 23 21 20 21 21 21 21 21 20 20 20 20 21 21 22 22 22 22 22 22 22 22 21 21 21 21 21 21 21 21 21 21 20 20 20 20 20 19 20 20 20 21 21 18 16 17 21 23 24 25 27 30 29 25 23 24 24 22 21 20 17 16 16 16 15 15 14 11 10 10 8 6 7 8 9 9 9 8 7 8 9 9 8 7
Wind_Direction
133 128 127 127 125 125 127 126 125 124 127 130 129 131 134 131 125 122 118 114 110 106 98 90 87 87 85 85 84 82 81 78 76 76 70 58 48 47 48 42 39 38 30 25 26 27 26 22 10 357 352 351 348 349 359 5 4 3 358 350 346 343 335 326 315 311 316 320 317 321 328 328 326 326 325 324 325 325 322 320 316 311 304 298 293
133 131 133 134 132 129 128 126 127 128 132 136 137 135 134 131 127 125 121 115 111 105 96 87 83 84 82 80 77 74 72 70 69 73 73 61 42 34 36 34 30 32 28 25 25 22 21 19 3 346 343 350 356 360 4 4 1 357 352 346 340 338 332 325 318 312 313 318 319 320 324 323 322 324 326 325 323 322 320 319 317 313 306 300 297
135 136 135 133 130 128 128 130 133 133 135 137 137 134 131 127 124 123 121 117 110 103 97 91 85 83 80 74 70 66 63 61 61 65 73 70 50 30 35 34 27 32 29 22 22 20 21 17 355 342 347 356 2 6 4 2 359 352 348 345 339 335 331 325 320 315 312 314 319 320 321 321 321 324 326 323 321 321 319 317 314 311 306 304 304
137 137 136 135 132 133 135 137 140 140 140 140 138 136 132 127 124 121 118 115 110 100 92 90 87 83 78 72 66 62 58 56 55 55 64 70 55 31 35 34 25 34 33 20 20 21 20 14 354 347 356 3 4 4 1 356 353 350 347 344 339 334 331 328 322 319 315 314 316 318 319 319 319 321 322 321 320 319 317 316 316 314 311 308 301
141 142 142 141 139 141 144 146 147 147 144 142 140 137 133 128 123 119 117 116 112 103 95 91 85 80 74 68 62 58 54 52 52 47 48 62 59 35 30 34 26 31 33 19 17 20 19 12 359 356 2 4 1 358 355 352 349 349 347 344 340 336 334 332 327 323 319 316 316 318 319 319 318 318 319 319 318 318 318 318 317 313 308 301 291
148 148 147 147 147 149 151 150 150 149 146 144 141 137 133 127 122 119 117 115 113 111 107 97 85 78 71 64 59 56 54 50 49 46 38 54 65 45 28 35 30 23 26 22 14 14 16 12 3 3 4 359 355 353 351 349 348 349 347 345 344 341 338 335 331 327 322 317 317 318 319 320 319 318 318 319 318 318 319 318 315 311 308 305 300
152 151 151 151 151 151 152 151 151 149 147 145 142 139 135 131 129 125 118 112 108 105 99 89 80 72 65 61 57 53 54 51 48 49 41 46 64 56 35 33 29 19 22 23 14 9 12 12 6 4 3 355 349 349 349 348 348 349 349 349 350 349 345 340 335 330 325 321 319 319 319 319 319 318 318 319 318 316 317 316 314 312 312 311 308
150 151 153 153 153 154 154 152 151 149 147 146 144 142 137 134 134 130 123 115 104 94 87 80 73 65 60 57 54 50 51 51 48 50 49 48 60 65 51 34 24 21 24 21 13 7 7 12 11 4 357 349 345 348 351 350 350 350 351 355 354 351 347 343 337 332 328 325 322 321 320 319 318 317 318 319 318 316 315 313 311 310 310 309 305
151 154 156 156 156 156 153 152 152 150 149 146 144 142 136 132 131 127 124 118 107 100 94 83 72 65 61 56 52 48 45 47 45 45 51 54 58 65 61 39 18 18 24 20 7 0 3 14 15 3 348 341 344 351 355 356 355 351 354 359 355 349 346 343 338 334 329 325 323 321 320 319 319 319 319 318 316 314 313 311 308 306 305 304 300
155 157 158 157 155 154 152 150 150 148 147 146 143 142 138 134 132 127 125 123 116 110 104 91 75 68 62 55 52 50 46 46 43 40 46 51 52 60 60 42 21 16 21 18 1 354 358 10 11 355 341 341 346 351 354 358 358 355 358 2 356 349 345 341 338 336 332 326 324 324 321 320 321 321 318 317 314 311 311 310 307 305 304 302 300
157 157 157 155 153 153 150 148 148 146 144 143 141 140 138 135 132 128 125 124 119 112 106 93 74 66 62 55 52 51 48 48 46 39 43 49 50 54 52 41 28 16 14 16 2 350 352 5 6 346 338 343 346 347 350 356 360 359 1 3 1 356 352 347 343 340 336 329 325 326 325 322 323 324 321 320 317 313 311 308 304 302 301 300 299
155 154 152 150 149 148 146 145 146 143 141 142 141 139 137 134 130 128 124 123 120 114 108 96 73 64 62 57 53 52 50 49 46 41 43 48 52 54 48 39 28 11 9 13 3 350 346 355 355 341 339 345 346 344 347 353 359 1 0 358 357 358 358 354 349 344 340 335 328 326 328 326 325 325 324 322 319 315 312 307 302 299 297 294 293
151 149 147 145 144 143 142 140 139 138 140 143 142 139 137 133 130 126 122 120 119 116 112 106 86 65 61 58 53 51 51 49 45 43 42 44 51 54 44 31 21 6 3 6 359 347 338 341 344 342 344 348 346 345 346 351 358 2 0 353 348 350 353 353 351 348 346 343 336 331 334 333 328 326 327 324 319 315 312 308 302 298 293 290 287
148 146 145 144 143 142 141 139 138 140 141 141 141 141 137 131 125 120 116 112 110 110 109 108 103 71 59 59 55 51 49 47 44 42 41 40 45 49 40 26 21 5 355 0 359 341 335 341 344 344 347 348 346 345 347 350 356 359 359 354 347 345 348 349 350 350 348 347 344 340 341 338 332 330 331 329 323 317 312 307 302 297 291 288 287
147 147 146 145 145 144 143 141 140 141 141 141 142 140 134 127 123 119 115 110 104 101 101 103 107 90 60 56 55 52 48 46 42 39 40 38 38 42 37 21 24 11 354 360 360 336 334 343 344 345 348 346 344 347 349 351 354 356 356 353 348 345 345 347 349 348 347 348 347 343 341 339 336 334 334 333 328 322 317 309 301 297 291 287 288
149 148 148 147 147 147 145 143 142 142 143 144 143 139 133 129 128 124 119 114 106 100 96 93 96 97 79 57 53 51 47 44 40 36 37 34 28 34 31 14 22 47 11 2 354 336 337 342 343 346 345 339 342 352 357 353 353 354 352 349 346 344 343 345 347 345 345 346 345 342 341 341 341 340 339 336 332 327 321 312 305 300 294 287 287
151 149 150 149 149 149 146 145 145 144 145 146 143 138 132 129 127 122 116 111 105 98 92 87 84 81 78 65 55 51 45 42 39 33 32 30 23 26 30 22 24 65 51 14 355 341 340 343 343 340 337 337 346 359 2 356 354 353 349 346 344 342 341 343 344 344 343 342 341 341 344 346 346 345 344 342 337 332 324 315 310 305 296 288 285
152 151 152 152 150 149 148 147 145 144 146 148 142 136 133 132 130 127 124 120 112 101 89 82 76 71 68 61 53 49 43 37 34 29 26 25 20 21 27 25 22 32 55 41 16 351 338 340 340 332 332 344 356 1 359 355 353 349 345 345 343 340 340 341 343 345 343 339 340 344 349 351 349 347 346 345 342 339 331 320 314 305 294 288 284
153 153 153 152 149 147 148 148 147 147 151 150 144 139 136 132 127 123 122 122 120 119 111 87 69 60 56 49 42 40 37 32 28 23 19 18 15 16 21 19 18 19 15 25 27 359 335 334 334 327 334 352 0 359 356 354 351 346 343 345 343 340 340 342 344 346 342 338 342 347 349 351 350 347 347 346 345 344 337 327 318 305 293 289 284
154 153 152 151 149 149 149 150 150 153 153 149 143 140 137 131 124 119 120 129 136 135 126 97 62 41 38 35 27 25 26 27 25 18 13 10 9 11 14 13 12 10 2 11 19 355 334 332 330 331 345 358 360 358 356 356 353 347 344 347 345 342 342 344 345 345 341 340 344 347 348 350 350 349 348 348 346 346 343 337 327 312 297 290 285
154 153 151 150 150 151 152 153 155 156 153 148 145 143 140 138 138 142 149 155 150 136 108 80 45 18 19 19 9 7 12 18 20 14 7 5 6 7 9 11 9 3 2 13 9 348 339 345 349 351 358 1 359 357 355 355 354 350 347 348 345 342 343 345 344 342 341 342 346 348 349 350 350 350 351 350 348 347 348 345 338 326 309 296 290
155 153 151 151 151 154 156 157 158 156 152 149 147 144 139 137 139 145 146 137 128 124 120 112 83 30 25 7 346 351 359 5 11 10 3 2 6 6 6 8 5 0 3 10 4 355 356 360 0 1 2 0 359 357 353 353 354 352 350 347 343 342 346 346 343 340 341 344 347 348 349 350 349 350 352 351 350 351 352 351 348 342 325 303 295
155 153 153 153 155 158 160 160 160 158 156 153 150 147 143 142 148 144 124 107 102 110 117 114 100 78 57 11 335 340 348 353 0 3 1 1 5 4 4 6 2 1 10 16 11 6 3 360 359 1 1 359 357 354 352 354 353 351 349 345 343 344 347 347 345 341 342 347 349 349 350 350 348 349 351 352 352 354 356 356 357 356 343 311 288
155 155 156 157 161 164 164 163 162 161 157 152 149 148 144 143 149 147 130 121 122 119 119 117 113 108 84 31 336 335 336 336 345 355 358 0 3 4 5 5 3 9 22 25 16 6 1 359 360 1 360 358 354 350 351 352 351 351 349 344 344 349 349 347 348 345 344 348 350 349 350 350 349 349 351 352 355 358 1 3 6 8 4 342 297
157 158 159 162 167 169 167 165 164 160 154 150 150 150 144 143 147 146 146 159 160 150 149 141 130 132 104 55 338 318 311 314 330 347 355 358 2 6 9 10 13 25 32 25 15 9 5 3 3 2 359 356 352 351 352 351 349 351 349 346 347 352 350 349 351 349 347 349 351 350 351 351 351 351 353 356 359 3 6 9 13 18 24 36 62
159 159 163 167 169 169 167 167 165 159 152 149 151 147 143 149 158 154 154 163 163 160 160 150 142 154 131 85 2 316 297 301 321 342 350 356 3 8 15 23 31 37 35 25 16 13 11 9 7 4 1 354 350 351 352 351 352 353 350 350 353 352 349 351 353 351 350 352 352 351 352 352 353 355 357 1 4 6 10 13 15 21 29 38 51
161 161 165 166 166 168 170 169 165 157 150 149 155 155 155 163 169 170 175 178 173 166 164 162 160 151 165 265 227 19 291 296 318 340 349 358 6 11 20 31 37 36 31 24 18 12 9 11 10 4 358 352 350 352 351 351 355 357 353 353 357 354 351 353 354 353 353 354 353 353 354 355 357 359 1 4 7 9 13 17 18 20 27 32 38
162 163 165 163 164 168 172 171 165 157 149 151 166 175 173 172 177 184 187 183 176 171 172 180 180 163 168 262 242 204 264 290 317 343 351 359 8 14 22 31 35 33 26 20 17 11 9 12 10 2 357 352 350 353 353 352 355 356 353 353 356 355 353 354 356 357 358 358 357 356 357 358 360 2 5 8 11 13 16 21 22 22 26 31 34
162 164 163 163 166 170 172 172 166 157 152 160 180 185 182 188 200 205 201 193 186 185 189 199 200 184 191 242 245 236 266 298 329 347 353 0 7 13 23 30 32 29 23 18 16 12 11 12 6 358 357 355 350 352 355 355 355 355 352 353 356 356 354 356 358 358 360 2 360 358 359 360 1 4 8 11 14 16 19 23 25 25 27 31 34
164 165 163 165 169 174 174 168 162 161 164 173 192 196 190 196 208 212 210 207 204 206 214 228 233 219 224 248 261 276 303 320 340 351 355 1 6 11 22 30 28 23 18 14 13 12 11 10 3 355 355 355 352 352 354 355 355 354 352 352 356 356 355 356 358 358 2 6 4 0 1 2 3 6 10 13 14 17 20 24 27 28 29 30 32
166 167 167 170 172 174 172 163 160 174 179 179 197 207 200 204 215 219 210 207 207 212 224 233 239 237 245 267 284 301 318 331 348 355 357 1 4 6 19 28 26 20 14 7 7 12 11 3 356 354 354 353 352 353 354 355 356 355 352 353 356 356 355 357 358 359 5 10 7 4 5 6 5 6 11 14 16 18 20 24 28 30 32 32 33
169 168 170 174 170 170 175 168 165 181 189 186 200 215 211 209 215 213 190 180 185 198 229 232 231 250 290 311 302 308 333 344 352 356 356 359 2 7 19 26 23 20 14 4 1 8 7 357 350 352 353 352 351 353 354 355 355 354 353 354 356 355 355 358 359 1 8 11 7 6 8 9 8 8 10 15 19 20 22 25 28 30 33 34 36
174 170 169 172 168 166 179 182 174 180 192 193 201 217 216 206 204 201 191 189 198 235 269 220 164 15 4 357 346 351 357 353 350 353 358 0 2 8 20 27 27 21 12 3 1 2 359 352 350 351 351 350 350 352 354 355 355 354 354 356 356 355 356 360 1 4 12 13 9 10 12 12 11 11 12 15 20 22 24 26 29 31 33 35 37
176 167 166 176 176 168 175 188 185 183 191 195 200 211 220 223 230 232 229 234 250 270 296 297 297 335 349 351 351 354 357 357 353 350 356 3 7 11 17 24 31 26 12 2 358 355 351 349 350 350 349 349 349 350 353 355 354 352 353 357 358 356 360 4 4 7 14 15 12 14 15 13 13 14 14 16 20 23 25 27 29 31 33 35 38
173 168 168 182 188 177 173 185 191 189 192 198 199 203 210 222 237 246 249 256 268 279 292 297 304 317 323 329 337 341 345 351 351 348 353 360 3 9 14 14 22 27 14 356 347 345 346 348 348 346 348 348 347 349 352 353 352 352 354 358 359 359 3 6 6 8 15 17 14 16 17 16 15 16 17 18 21 23 25 27 30 33 34 35 38
171 175 176 183 192 183 175 183 195 194 195 200 200 200 203 206 213 226 238 249 266 280 285 290 296 295 298 310 322 324 329 341 343 343 352 354 352 358 5 4 10 19 6 344 336 340 344 346 344 343 346 346 346 347 351 351 351 353 356 359 1 2 5 6 5 9 17 19 16 17 18 19 18 18 19 21 23 25 26 28 31 35 37 38 39
171 178 181 183 190 187 180 184 197 197 197 200 201 200 203 206 207 211 216 227 244 255 264 277 281 272 277 296 306 303 313 331 334 335 345 346 342 346 351 352 359 5 350 331 331 337 340 340 340 340 342 343 344 346 348 349 350 354 360 4 4 4 7 7 6 10 18 20 19 18 19 20 21 22 21 21 23 26 28 28 30 35 40 42 42
174 180 186 184 185 189 187 189 197 199 198 200 201 201 204 208 209 210 212 219 230 232 232 248 265 271 282 293 293 287 299 314 318 327 336 335 330 334 338 341 346 346 329 319 324 331 332 332 333 335 336 338 343 346 346 345 347 353 0 5 6 6 8 9 8 12 19 22 21 20 19 21 23 24 24 23 24 27 29 30 31 35 39 43 45
176 184 193 188 185 188 191 193 199 201 200 200 200 203 207 209 212 216 217 218 228 236 239 241 247 260 278 285 278 270 281 298 314 324 326 323 320 321 324 326 326 318 309 311 319 324 325 325 327 329 331 334 340 344 345 343 345 350 356 3 6 7 8 9 9 12 18 23 24 22 21 22 25 28 28 26 26 29 32 32 33 35 38 42 47
179 189 200 197 190 187 190 196 202 204 203 202 201 204 210 213 215 219 221 223 229 238 245 247 244 248 261 269 268 265 269 285 306 310 306 303 302 300 299 299 298 298 302 308 313 315 316 317 318 321 326 331 336 342 344 344 345 346 350 358 3 7 9 9 9 11 15 21 24 24 22 22 25 29 31 30 29 31 33 34 34 36 38 41 46
183 193 205 205 195 187 187 196 205 207 208 209 207 208 214 218 218 219 223 227 231 235 240 245 246 247 252 255 259 266 271 278 287 294 294 288 279 280 285 286 285 292 299 301 301 305 310 310 310 317 325 331 334 337 343 346 344 343 346 352 359 4 7 9 9 10 13 18 22 24 23 23 24 28 33 34 32 31 34 35 36 37 39 40 45
185 194 203 204 199 193 190 194 203 208 212 214 213 212 216 221 224 226 228 230 232 235 240 245 248 251 255 255 256 265 271 275 282 290 293 281 264 265 273 277 281 290 294 289 291 302 306 303 304 313 323 330 332 335 341 346 344 339 340 345 353 359 3 7 9 10 11 15 19 23 23 23 24 27 34 38 37 34 35 36 36 37 40 43 45
188 199 206 205 205 205 201 199 202 206 211 215 216 217 219 221 225 231 234 235 236 236 239 242 245 250 258 262 263 266 270 273 280 288 288 280 269 265 266 270 278 286 284 279 285 296 300 297 301 312 322 329 332 335 339 343 342 335 332 337 346 354 358 2 6 8 11 13 16 20 23 23 22 27 36 41 41 39 38 37 36 36 39 43 45
191 201 210 211 213 214 210 207 207 210 211 214 217 220 222 223 226 230 234 238 242 244 245 245 244 246 253 260 264 265 268 274 280 282 279 273 268 264 263 268 277 280 276 275 282 290 295 297 302 312 323 329 332 335 337 339 342 334 326 327 337 347 352 356 0 4 8 11 12 16 22 22 20 25 36 41 42 42 41 39 36 34 35 38 41
193 199 207 210 212 214 212 210 210 212 214 216 218 221 224 226 228 230 233 237 242 245 248 250 250 248 250 256 261 264 268 273 277 277 271 263 259 260 265 272 278 277 275 278 283 287 293 300 305 312 322 328 331 334 336 336 339 336 323 318 325 339 348 352 354 356 2 8 9 12 20 22 18 20 33 41 43 43 41 39 37 34 31 31 34
197 200 204 207 207 210 211 211 211 212 215 219 221 223 227 230 232 233 234 236 238 241 244 249 252 252 252 255 260 265 269 271 270 269 267 263 260 263 269 274 273 271 272 276 279 282 289 297 303 308 316 323 327 332 335 332 331 332 317 308 314 330 342 346 347 349 355 2 4 6 15 21 17 18 28 38 45 46 43 40 40 36 30 29 31
201 201 205 208 209 210 211 213 214 214 215 218 222 224 227 230 234 237 238 238 239 240 241 243 246 249 251 254 257 260 262 262 259 258 259 260 260 263 267 269 268 268 270 273 278 285 293 300 303 304 308 314 319 324 330 329 328 328 308 297 305 322 335 340 343 346 348 354 359 1 9 18 17 16 24 32 42 49 48 43 40 34 29 32 37
205 205 207 210 212 213 214 215 217 218 218 219 222 226 228 231 234 238 240 243 244 245 245 244 245 246 248 251 254 256 258 260 260 259 258 258 260 262 264 265 268 272 277 282 288 293 296 300 305 306 306 309 313 318 322 325 328 329 311 293 299 315 327 332 339 342 343 346 351 354 4 15 15 14 22 28 32 43 50 49 45 35 25 27 39
208 210 211 212 214 215 216 217 219 221 221 222 225 228 230 232 234 236 238 242 245 247 249 249 248 248 248 249 251 253 254 256 259 259 258 258 259 260 262 266 270 272 276 283 290 291 290 292 298 302 303 306 311 314 315 317 321 324 315 301 301 309 318 324 332 336 336 339 342 343 353 9 14 14 21 27 26 28 42 55 54 43 27 19 30
210 212 214 216 216 217 218 220 221 223 225 226 228 230 232 234 237 238 239 241 242 244 247 249 251 252 253 253 253 253 253 254 256 257 257 258 260 261 264 268 268 268 272 278 282 282 284 289 294 297 299 304 308 308 308 312 317 318 314 310 309 309 311 317 324 327 328 331 334 333 335 350 7 12 15 23 26 22 20 41 57 47 30 19 21
213 213 214 216 217 218 220 222 223 225 228 229 231 233 235 237 239 240 242 244 244 245 245 247 249 252 254 255 255 256 256 255 256 257 257 258 258 260 263 266 266 268 275 278 275 271 278 286 288 289 291 296 298 298 300 306 313 314 313 314 315 313 311 312 315 318 319 321 324 325 321 322 339 352 354 3 17 18 13 25 45 39 21 14 21